• In Uzbekistan
  • List of Countries
  • For 7 days
  • Water Temperature
  • Satellite Maps
  • Weather Map
  • Weather Widgets
  • user-avatar
    Login

    Hourly Weather Rozdol

    Today, 23 February, Friday

    Time Temperature Precipitation Wind Pressure Humidity
    00:00 -6°C° 0 mm 5 mps 757 mmHg 79%
    01:00 -6°C° 0 mm 5 mps 757 mmHg 79%
    02:00 -6°C° 0 mm 5 mps 757 mmHg 78%
    03:00 -6°C° 0.1 mm 5 mps 757 mmHg 79%
    04:00 -6°C° 0.1 mm 5 mps 757 mmHg 80%
    05:00 -8°C° 0.1 mm 6 mps 757 mmHg 80%
    06:00 -8°C° 0.2 mm 6 mps 757 mmHg 81%
    07:00 -8°C° 0.2 mm 6 mps 757 mmHg 82%
    08:00 -8°C° 0 mm 6 mps 756 mmHg 83%
    09:00 -6°C° 0.2 mm 6 mps 756 mmHg 81%
    10:00 -6°C° 0.2 mm 6 mps 756 mmHg 80%
    11:00 -6°C° 0.2 mm 5 mps 757 mmHg 79%
    12:00 -5°C° 0.1 mm 5 mps 757 mmHg 78%
    13:00 -5°C° 0.1 mm 6 mps 756 mmHg 76%
    14:00 -4°C° 0.1 mm 6 mps 756 mmHg 75%
    15:00 -5°C° 0 mm 5 mps 756 mmHg 75%
    16:00 -5°C° 0 mm 5 mps 756 mmHg 76%
    17:00 -5°C° 0 mm 5 mps 756 mmHg 76%
    18:00 -6°C° 0 mm 5 mps 756 mmHg 77%
    19:00 -6°C° 0 mm 5 mps 756 mmHg 77%
    20:00 -7°C° 0 mm 5 mps 756 mmHg 77%
    21:00 -7°C° 0 mm 5 mps 756 mmHg 78%
    22:00 -7°C° 0 mm 5 mps 756 mmHg 78%
    23:00 -7°C° 0 mm 5 mps 756 mmHg 78%

    Tomorrow, 24 February, Saturday

    Time Temperature Precipitation Wind Pressure Humidity
    00:00 -7°C° 0 mm 4 mps 756 mmHg 79%
    01:00 -8°C° 0 mm 4 mps 756 mmHg 79%
    02:00 -8°C° 0 mm 4 mps 756 mmHg 79%
    03:00 -8°C° 0.1 mm 4 mps 755 mmHg 80%
    04:00 -8°C° 0.1 mm 4 mps 755 mmHg 82%
    05:00 -8°C° 0.1 mm 4 mps 755 mmHg 83%
    06:00 -8°C° 0.3 mm 4 mps 755 mmHg 84%
    07:00 -9°C° 0.3 mm 4 mps 754 mmHg 85%
    08:00 -9°C° 0.3 mm 4 mps 754 mmHg 86%
    09:00 -8°C° 0.2 mm 4 mps 754 mmHg 84%
    10:00 -8°C° 0.2 mm 4 mps 754 mmHg 82%
    11:00 -7°C° 0.2 mm 4 mps 754 mmHg 80%
    12:00 -6°C° 0 mm 3 mps 754 mmHg 78%
    13:00 -5°C° 0 mm 3 mps 753 mmHg 77%
    14:00 -5°C° 0 mm 3 mps 753 mmHg 76%
    15:00 -5°C° 0 mm 3 mps 753 mmHg 77%
    16:00 -5°C° 0 mm 3 mps 753 mmHg 79%
    17:00 -5°C° 0 mm 3 mps 753 mmHg 80%
    18:00 -6°C° 0 mm 3 mps 753 mmHg 82%
    19:00 -6°C° 0 mm 3 mps 753 mmHg 84%
    20:00 -6°C° 0 mm 3 mps 753 mmHg 85%
    21:00 -7°C° 0 mm 3 mps 753 mmHg 85%
    22:00 -7°C° 0 mm 3 mps 753 mmHg 85%
    23:00 -7°C° 0 mm 3 mps 753 mmHg 85%

    Day after tomorrow, 25 February, Sunday

    Time Temperature Precipitation Wind Pressure Humidity
    00:00 -7°C° 0 mm 3 mps 753 mmHg 84%
    01:00 -8°C° 0 mm 3 mps 754 mmHg 84%
    02:00 -8°C° 0 mm 3 mps 754 mmHg 83%
    03:00 -9°C° 0 mm 4 mps 754 mmHg 83%
    04:00 -9°C° 0 mm 4 mps 754 mmHg 82%
    05:00 -10°C° 0 mm 4 mps 754 mmHg 82%
    06:00 -11°C° 0 mm 5 mps 754 mmHg 81%
    07:00 -11°C° 0 mm 5 mps 754 mmHg 80%
    08:00 -11°C° 0 mm 5 mps 754 mmHg 78%
    09:00 -9°C° 0 mm 4 mps 754 mmHg 75%
    10:00 -9°C° 0 mm 4 mps 754 mmHg 73%
    11:00 -8°C° 0 mm 4 mps 755 mmHg 70%
    12:00 -7°C° 0 mm 4 mps 755 mmHg 68%
    13:00 -7°C° 0 mm 4 mps 754 mmHg 67%
    14:00 -5°C° 0 mm 4 mps 754 mmHg 66%
    15:00 -7°C° 0 mm 4 mps 755 mmHg 68%
    16:00 -7°C° 0 mm 5 mps 755 mmHg 70%
    17:00 -8°C° 0 mm 5 mps 755 mmHg 72%
    18:00 -10°C° 0 mm 5 mps 755 mmHg 73%
    19:00 -10°C° 0 mm 5 mps 756 mmHg 75%
    20:00 -11°C° 0 mm 5 mps 756 mmHg 76%
    21:00 -11°C° 0 mm 5 mps 756 mmHg 76%
    22:00 -10°C° 0 mm 4 mps 757 mmHg 76%
    23:00 -10°C° 0 mm 4 mps 757 mmHg 76%

    26 February, Monday

    Time Temperature Precipitation Wind Pressure Humidity
    00:00 -11°C° 0 mm 4 mps 757 mmHg 76%
    01:00 -12°C° 0 mm 5 mps 757 mmHg 76%
    02:00 -12°C° 0 mm 5 mps 757 mmHg 76%
    03:00 -12°C° 0 mm 5 mps 757 mmHg 76%
    04:00 -13°C° 0 mm 5 mps 758 mmHg 77%
    05:00 -13°C° 0 mm 5 mps 758 mmHg 77%
    06:00 -13°C° 0 mm 5 mps 758 mmHg 76%
    07:00 -13°C° 0 mm 5 mps 758 mmHg 76%
    08:00 -13°C° 0 mm 5 mps 759 mmHg 75%
    09:00 -12°C° 0 mm 5 mps 759 mmHg 71%
    10:00 -12°C° 0 mm 5 mps 759 mmHg 68%
    11:00 -11°C° 0 mm 5 mps 759 mmHg 64%
    12:00 -10°C° 0 mm 5 mps 759 mmHg 62%
    13:00 -8°C° 0 mm 5 mps 758 mmHg 60%
    14:00 -8°C° 0 mm 5 mps 758 mmHg 57%
    15:00 -8°C° 0 mm 5 mps 758 mmHg 59%
    16:00 -10°C° 0 mm 5 mps 758 mmHg 61%
    17:00 -10°C° 0 mm 5 mps 759 mmHg 63%
    18:00 -10°C° 0 mm 5 mps 759 mmHg 66%
    19:00 -11°C° 0 mm 5 mps 759 mmHg 68%
    20:00 -11°C° 0 mm 5 mps 759 mmHg 71%
    21:00 -12°C° 0 mm 5 mps 759 mmHg 72%
    22:00 -12°C° 0 mm 5 mps 759 mmHg 73%
    23:00 -13°C° 0 mm 5 mps 759 mmHg 74%

    27 February, Tuesday

    Time Temperature Precipitation Wind Pressure Humidity
    00:00 -14°C° 0 mm 6 mps 758 mmHg 74%
    01:00 -14°C° 0 mm 6 mps 758 mmHg 74%
    02:00 -15°C° 0 mm 6 mps 758 mmHg 75%
    03:00 -15°C° 0 mm 6 mps 757 mmHg 74%
    04:00 -15°C° 0 mm 7 mps 757 mmHg 74%
    05:00 -15°C° 0 mm 7 mps 757 mmHg 73%
    06:00 -15°C° 0 mm 7 mps 757 mmHg 71%
    07:00 -15°C° 0 mm 7 mps 757 mmHg 69%
    08:00 -14°C° 0 mm 7 mps 757 mmHg 67%
    09:00 -13°C° 0 mm 8 mps 756 mmHg 63%
    10:00 -12°C° 0 mm 8 mps 756 mmHg 60%
    11:00 -11°C° 0 mm 8 mps 755 mmHg 56%
    12:00 -10°C° 0 mm 8 mps 755 mmHg 57%
    13:00 -10°C° 0 mm 8 mps 754 mmHg 59%
    14:00 -8°C° 0 mm 8 mps 754 mmHg 61%
    15:00 -8°C° 0 mm 8 mps 753 mmHg 65%
    16:00 -8°C° 0 mm 8 mps 753 mmHg 69%
    17:00 -10°C° 0 mm 8 mps 753 mmHg 72%
    18:00 -10°C° 0.2 mm 8 mps 753 mmHg 76%
    19:00 -10°C° 0.2 mm 8 mps 753 mmHg 79%
    20:00 -9°C° 0.2 mm 7 mps 753 mmHg 82%
    21:00 -9°C° 1 mm 7 mps 753 mmHg 86%
    22:00 -9°C° 1 mm 7 mps 752 mmHg 89%
    23:00 -9°C° 1 mm 7 mps 752 mmHg 93%

    28 February, Wednesday

    Time Temperature Precipitation Wind Pressure Humidity
    00:00 -9°C° 0.8 mm 7 mps 752 mmHg 93%
    01:00 -9°C° 0.8 mm 6 mps 752 mmHg 92%
    02:00 -8°C° 0.8 mm 6 mps 752 mmHg 92%
    03:00 -9°C° 0.1 mm 6 mps 752 mmHg 91%
    04:00 -8°C° 0.1 mm 5 mps 752 mmHg 91%
    05:00 -8°C° 0.1 mm 5 mps 752 mmHg 91%
    06:00 -8°C° 0 mm 5 mps 752 mmHg 91%
    07:00 -8°C° 0 mm 5 mps 753 mmHg 91%
    08:00 -8°C° 0 mm 5 mps 753 mmHg 91%
    09:00 -7°C° 0 mm 5 mps 753 mmHg 91%
    10:00 -5°C° 0 mm 4 mps 753 mmHg 91%
    11:00 -4°C° 0 mm 4 mps 753 mmHg 91%
    12:00 -3°C° 0 mm 4 mps 752 mmHg 91%
    13:00 -3°C° 0 mm 4 mps 752 mmHg 92%
    14:00 -2°C° 0 mm 5 mps 752 mmHg 92%
    15:00 -2°C° 0.3 mm 4 mps 751 mmHg 93%
    16:00 -2°C° 0.3 mm 4 mps 751 mmHg 94%
    17:00 -2°C° 0.3 mm 4 mps 751 mmHg 95%
    18:00 -1°C° 0.7 mm 4 mps 750 mmHg 95%
    19:00 -1°C° 0.7 mm 5 mps 750 mmHg 96%
    20:00 -1°C° 0.7 mm 5 mps 749 mmHg 97%
    21:00 0°C° 1.4 mm 5 mps 748 mmHg 97%
    22:00 -1°C° 1.4 mm 6 mps 747 mmHg 97%
    23:00 +1°C° 1.4 mm 6 mps 746 mmHg 98%
    Show more